Regional Weather Roundup
Issued by NWS

Home | Current Version | Previous Version | Graphics & Text | Print | Product List | Glossary On
Versions: 1 2 3 4 5 6 7 8 9 10 11 12 13 14 15 16 17 18 19 20 21 22 23 24 25 26 27 28 29 30 31 32 33 34 35 36 37 38 39 40 41 42 43 44 45 46 47 48 49 50
000
ASUS43 KLOT 281704
RWRIL

ILLINOIS REGIONAL WEATHER ROUNDUP
NATIONAL WEATHER SERVICE CHICAGO/ROMEOVILLE IL
1200 PM CDT SUN MAY 28 2017

NOTE: "FAIR" INDICATES FEW OR NO CLOUDS BELOW 12,000 FEET WITH NO
SIGNIFICANT WEATHER AND/OR OBSTRUCTIONS TO VISIBILITY.

* THESE STATIONS ARE NOT UNDER NWS QUALITY CONTROL. THEY ALSO MAY NOT
  REPORT WEATHER SUCH AS PRECIPITATION OR FOG.

ILZ001-002-007-009-015-016-024-281800-
NORTHWEST ILLINOIS

CITY           SKY/WX    TMP DP  RH WIND       PRES   REMARKS
MOLINE         SUNNY     74  50  42 NW10      29.80S
STERLING*      MOSUNNY   70  58  65 NW7G16    29.80R
SAVANNA*       SUNNY     69  53  57 NW5       29.79S
$$

ILZ003-004-008-010-011-017-018-281800-
NORTH CENTRAL ILLINOIS

CITY           SKY/WX    TMP DP  RH WIND       PRES   REMARKS
ROCKFORD       PTSUNNY   70  58  65 NW10      29.79R
FREEPORT*      MOSUNNY   66  56  69 W5        29.81R
ROCHELLE*      CLOUDY    65  60  82 N7        29.79S
DE KALB*       CLOUDY    65  60  83 NW9       29.78S
$$

ILZ005-006-012>014-019>023-281800-
NORTHEAST ILLINOIS

CITY           SKY/WX    TMP DP  RH WIND       PRES   REMARKS
CHICAGO-OHARE  CLOUDY    73  59  61 W7        29.73F
CHICAGO-MIDWAY PTSUNNY   75  62  64 NW13      29.72F
AURORA         CLOUDY    72  62  71 NW8       29.75S
LANSING*       PTSUNNY   75  64  69 NW10      29.73F
JOLIET*        CLOUDY    75  63  65 W6        29.74F
WAUKEGAN       CLOUDY    67  58  72 VRB6      29.74S
DUPAGE AIRPORT CLOUDY    70  61  73 NW3       29.74S
WHEELING       CLOUDY    71  60  68 N5        29.75S
MORRIS*        CLOUDY    74  61  63 NW6       29.73F
ROMEOVILLE*    PTSUNNY   74  65  73 NW6       29.74F
NORTHERLY ISL    N/A     61  55  81 N12         N/A
$$

LMZ740>746-281800-
SOUTHERN LAKE MICHIGAN

STATION/POSITION SKY/WX   TEMP    WIND        PRES    VSBY  WAVE
                          AIR SEA DIR/SP/G                  HT/PER
                          (F)     (DEG/KT/KT) (MB)    (MI)  (FT/S)
SOUTHERN BUOY              52 50  360/  8/  8 1008.0          0
WILMETTE HARBOR            53 54                N/A           1
HARRISON CRIB              55      20/ 11/ 12   N/A
BURNHAM HARBOR             62      20/  7/ 16   N/A
CALUMET HARBOR             60     350/ 10/ 12 1007.1R
BURNS HARBOR               59      30/  6/  8 1007.8R
MICHIGAN CITY              58      70/  1/  2   N/A
MICHIGAN CITY 6N           56 56  350/ 10/ 12   N/A           1
ST. JOSEPH                 59 59  360/  6/ 10 1007.6R         1
$$

ILZ025>027-034>036-040-047-049-050-058-095>099-281800-
WEST-CENTRAL ILLINOIS

CITY           SKY/WX    TMP DP  RH WIND       PRES   REMARKS
QUINCY         MOSUNNY   73  56  54 NW10      29.86R
GALESBURG*     MOSUNNY   72  56  55 NW8G21    29.81S
MACOMB*        SUNNY     73  56  55 NW12G20   29.85R
JACKSONVILLE*  MOSUNNY   72  60  66 NW10      29.82S
PITTSFIELD*    PTSUNNY   74  60  62 NW12G18   29.85F
$$

ILZ028>032-037-038-041>044-048-051>054-059>061-281800-
CENTRAL ILLINOIS

CITY           SKY/WX    TMP DP  RH WIND       PRES   REMARKS
PONTIAC        PTSUNNY   73  67  81 NW10      29.77S
BLOOMINGTON    PTSUNNY   74  63  68 NW13G22   29.79R
DECATUR        CLOUDY    74  65  73 W8        29.78S
PEORIA         MOSUNNY   73  57  57 NW12G17   29.79R
LACON*         MOSUNNY   71  57  61 NW14G20   29.78S
LINCOLN*       PTSUNNY   74  63  69 NW5       29.79R
SPRINGFIELD    PTSUNNY   76  64  66 NW12      29.81R
TAYLORVILLE    NOT AVBL
$$

ILZ033-039-045-046-055>057-062-063-281800-
EAST-CENTRAL ILLINOIS

CITY           SKY/WX    TMP DP  RH WIND       PRES   REMARKS
CHAMPAIGN      PTSUNNY   74  65  73 W12       29.77R
RANTOUL*       PTSUNNY   77  65  67 NW12G17   29.76R
MATTOON        CLOUDY    71  64  78 W14       29.79R
PARIS*         CLOUDY    69  64  83 W13       29.79S
$$

ILZ079-100>102-281800-
SOUTHWEST ILLINOIS

CITY           SKY/WX    TMP DP  RH WIND       PRES   REMARKS
ALTON          CLOUDY    66  63  88 W14       29.86R
BELLEVILLE     CLOUDY    69  63  81 W13       29.86R
CAHOKIA*       CLOUDY    68  62  81 W9        29.85S
SPARTA*        CLOUDY    73  64  74 W13       29.86S
$$

ILZ064>066-069>071-074>076-080>082-084>086-088>090-092>094-281800-
SOUTH-CENTRAL ILLINOIS

CITY           SKY/WX    TMP DP  RH WIND       PRES   REMARKS
CARBONDALE     CLOUDY    72  65  78 W14G23    29.84F
CAIRO*         CLOUDY    71  64  80 W14G23    29.87S
EFFINGHAM*     CLOUDY    72  65  81 SW13      29.82R
MARION         CLOUDY    68  68 100 SW17      29.85F
MT. VERNON       N/A     74  64  71 W13G20    29.82S
SALEM*         CLOUDY    73  63  72 W17       29.83R
$$

ILZ067-068-072-073-078-083-087-091-281800-
SOUTHEAST ILLINOIS

CITY           SKY/WX    TMP DP  RH WIND       PRES   REMARKS
LAWRENCEVILLE  CLOUDY    75  63  66 W17       29.80S
FLORA*         CLOUDY    76  63  63 W18G25    29.81S
FAIRFIELD*     CLOUDY    74  64  70 W7G16     29.81S
HARRISBURG*    CLOUDY    70  64  83 W13G18    29.85R
ROBINSON*      CLOUDY    74  62  67 W13G22    29.80S
CARMI*         CLOUDY    71  63  77 W14       29.82F
$$

ABBREVIATIONS USED IN REMARKS
   TC - TEMPERATURE IN CELSIUS
  WCI - WIND CHILL INDEX
   HX - HEAT INDEX
  VSB - VISIBILITY
$$





USA.gov is the U.S. government's official web portal to all federal, state and local government web resources and services.